Stündliche Wetter Ablyazovo

Heute, 17 Juni, Donnerstag

Zeit Temperatur Niederschläge Wind Luftdruck Luftfeuchtigkeit
00:00 +24°C° 0 mm 2 m/S 745 mmHg 49%
01:00 +21°C° 0 mm 2 m/S 745 mmHg 51%
02:00 +21°C° 0 mm 2 m/S 745 mmHg 50%
03:00 +21°C° 0 mm 2 m/S 745 mmHg 49%
04:00 +20°C° 0 mm 2 m/S 745 mmHg 49%
05:00 +23°C° 0 mm 2 m/S 744 mmHg 50%
06:00 +24°C° 0 mm 2 m/S 744 mmHg 50%
07:00 +25°C° 0 mm 2 m/S 744 mmHg 51%
08:00 +26°C° 0 mm 3 m/S 744 mmHg 50%
09:00 +28°C° 0 mm 3 m/S 745 mmHg 49%
10:00 +29°C° 0 mm 4 m/S 745 mmHg 48%
11:00 +30°C° 0 mm 5 m/S 745 mmHg 46%
12:00 +32°C° 0 mm 5 m/S 745 mmHg 44%
13:00 +33°C° 0 mm 5 m/S 745 mmHg 42%
14:00 +32°C° 0 mm 6 m/S 745 mmHg 43%
15:00 +32°C° 0 mm 7 m/S 745 mmHg 43%
16:00 +32°C° 0 mm 7 m/S 744 mmHg 43%
17:00 +29°C° 0 mm 7 m/S 745 mmHg 53%
18:00 +27°C° 0 mm 8 m/S 745 mmHg 63%
19:00 +24°C° 0 mm 8 m/S 746 mmHg 73%
20:00 +22°C° 0 mm 7 m/S 746 mmHg 74%
21:00 +21°C° 0 mm 5 m/S 747 mmHg 76%
22:00 +19°C° 0 mm 4 m/S 748 mmHg 77%
23:00 +18°C° 0 mm 4 m/S 748 mmHg 76%

Morgen, 18 Juni, Freitag

Zeit Temperatur Niederschläge Wind Luftdruck Luftfeuchtigkeit
00:00 +17°C° 0 mm 4 m/S 748 mmHg 74%
01:00 +17°C° 0 mm 4 m/S 748 mmHg 73%
02:00 +15°C° 0 mm 4 m/S 748 mmHg 73%
03:00 +14°C° 0 mm 4 m/S 749 mmHg 73%
04:00 +13°C° 0 mm 4 m/S 749 mmHg 73%
05:00 +14°C° 0 mm 5 m/S 749 mmHg 69%
06:00 +15°C° 0 mm 6 m/S 750 mmHg 66%
07:00 +16°C° 0 mm 7 m/S 750 mmHg 62%
08:00 +17°C° 0 mm 7 m/S 750 mmHg 56%
09:00 +20°C° 0 mm 7 m/S 750 mmHg 50%
10:00 +21°C° 0 mm 7 m/S 751 mmHg 44%
11:00 +22°C° 0 mm 7 m/S 751 mmHg 43%
12:00 +22°C° 0 mm 7 m/S 751 mmHg 41%
13:00 +23°C° 0 mm 7 m/S 751 mmHg 39%
14:00 +23°C° 0 mm 7 m/S 751 mmHg 39%
15:00 +23°C° 0 mm 7 m/S 751 mmHg 38%
16:00 +23°C° 0 mm 7 m/S 751 mmHg 38%
17:00 +22°C° 0 mm 7 m/S 752 mmHg 42%
18:00 +21°C° 0 mm 7 m/S 752 mmHg 46%
19:00 +20°C° 0 mm 7 m/S 752 mmHg 50%
20:00 +17°C° 0 mm 7 m/S 753 mmHg 52%
21:00 +16°C° 0 mm 6 m/S 753 mmHg 55%
22:00 +15°C° 0 mm 5 m/S 754 mmHg 58%
23:00 +14°C° 0 mm 5 m/S 754 mmHg 62%

übermorgen, 19 Juni, Samstag

Zeit Temperatur Niederschläge Wind Luftdruck Luftfeuchtigkeit
00:00 +12°C° 0 mm 4 m/S 755 mmHg 67%
01:00 +11°C° 0 mm 3 m/S 755 mmHg 71%
02:00 +11°C° 0 mm 3 m/S 755 mmHg 73%
03:00 +10°C° 0 mm 3 m/S 756 mmHg 75%
04:00 +9°C° 0 mm 3 m/S 756 mmHg 76%
05:00 +12°C° 0 mm 2 m/S 756 mmHg 69%
06:00 +14°C° 0 mm 2 m/S 757 mmHg 62%
07:00 +16°C° 0 mm 2 m/S 757 mmHg 55%
08:00 +18°C° 0 mm 3 m/S 757 mmHg 48%
09:00 +19°C° 0 mm 3 m/S 757 mmHg 42%
10:00 +21°C° 0 mm 3 m/S 757 mmHg 36%
11:00 +22°C° 0 mm 3 m/S 756 mmHg 36%
12:00 +23°C° 0 mm 4 m/S 756 mmHg 35%
13:00 +25°C° 0 mm 4 m/S 756 mmHg 34%
14:00 +25°C° 0 mm 4 m/S 756 mmHg 35%
15:00 +25°C° 0 mm 5 m/S 755 mmHg 37%
16:00 +26°C° 0 mm 5 m/S 755 mmHg 38%
17:00 +25°C° 0 mm 4 m/S 755 mmHg 43%
18:00 +23°C° 0 mm 4 m/S 755 mmHg 48%
19:00 +22°C° 0 mm 4 m/S 754 mmHg 54%
20:00 +21°C° 0 mm 3 m/S 754 mmHg 60%
21:00 +19°C° 0 mm 3 m/S 754 mmHg 67%
22:00 +17°C° 0 mm 2 m/S 754 mmHg 73%
23:00 +17°C° 0 mm 2 m/S 754 mmHg 76%

20 Juni, Sonntag

Zeit Temperatur Niederschläge Wind Luftdruck Luftfeuchtigkeit
00:00 +16°C° 0 mm 2 m/S 754 mmHg 79%
01:00 +16°C° 0 mm 2 m/S 754 mmHg 82%
02:00 +15°C° 0 mm 2 m/S 754 mmHg 83%
03:00 +15°C° 0 mm 2 m/S 754 mmHg 85%
04:00 +15°C° 0 mm 2 m/S 754 mmHg 86%
05:00 +16°C° 0 mm 3 m/S 753 mmHg 80%
06:00 +18°C° 0 mm 4 m/S 753 mmHg 74%
07:00 +20°C° 0 mm 5 m/S 753 mmHg 68%
08:00 +22°C° 0 mm 5 m/S 753 mmHg 63%
09:00 +24°C° 0 mm 6 m/S 753 mmHg 59%
10:00 +27°C° 0 mm 6 m/S 752 mmHg 55%
11:00 +29°C° 0 mm 7 m/S 752 mmHg 50%
12:00 +30°C° 0 mm 7 m/S 752 mmHg 46%
13:00 +32°C° 0 mm 7 m/S 751 mmHg 42%
14:00 +32°C° 0 mm 8 m/S 751 mmHg 41%
15:00 +32°C° 0 mm 8 m/S 751 mmHg 40%
16:00 +32°C° 0 mm 8 m/S 750 mmHg 39%
17:00 +30°C° 0 mm 7 m/S 750 mmHg 44%
18:00 +29°C° 0 mm 7 m/S 751 mmHg 50%
19:00 +28°C° 0 mm 6 m/S 751 mmHg 55%
20:00 +26°C° 0 mm 5 m/S 751 mmHg 63%
21:00 +23°C° 0 mm 4 m/S 751 mmHg 72%
22:00 +21°C° 0 mm 3 m/S 751 mmHg 80%
23:00 +20°C° 0 mm 3 m/S 751 mmHg 80%

21 Juni, Montag

Zeit Temperatur Niederschläge Wind Luftdruck Luftfeuchtigkeit
00:00 +18°C° 0 mm 3 m/S 752 mmHg 80%
01:00 +17°C° 0 mm 3 m/S 752 mmHg 79%
02:00 +16°C° 0 mm 3 m/S 752 mmHg 78%
03:00 +14°C° 0 mm 3 m/S 752 mmHg 78%
04:00 +13°C° 0 mm 3 m/S 753 mmHg 77%
05:00 +16°C° 0 mm 3 m/S 753 mmHg 70%
06:00 +17°C° 0 mm 3 m/S 753 mmHg 62%
07:00 +19°C° 0 mm 4 m/S 754 mmHg 55%
08:00 +21°C° 0 mm 4 m/S 754 mmHg 46%
09:00 +22°C° 0 mm 4 m/S 754 mmHg 37%
10:00 +25°C° 0 mm 5 m/S 754 mmHg 28%
11:00 +26°C° 0 mm 5 m/S 754 mmHg 28%
12:00 +26°C° 0 mm 4 m/S 754 mmHg 28%
13:00 +27°C° 0 mm 4 m/S 753 mmHg 28%
14:00 +27°C° 0 mm 4 m/S 753 mmHg 30%
15:00 +28°C° 0 mm 5 m/S 753 mmHg 32%
16:00 +28°C° 0 mm 5 m/S 753 mmHg 33%
17:00 +27°C° 0 mm 5 m/S 753 mmHg 38%
18:00 +26°C° 0 mm 4 m/S 753 mmHg 43%
19:00 +23°C° 0 mm 4 m/S 753 mmHg 48%
20:00 +21°C° 0 mm 4 m/S 753 mmHg 54%
21:00 +19°C° 0 mm 3 m/S 753 mmHg 60%
22:00 +18°C° 0 mm 3 m/S 753 mmHg 65%
23:00 +17°C° 0 mm 2 m/S 753 mmHg 67%

22 Juni, Dienstag

Zeit Temperatur Niederschläge Wind Luftdruck Luftfeuchtigkeit
00:00 +16°C° 0 mm 2 m/S 753 mmHg 68%
01:00 +16°C° 0 mm 2 m/S 752 mmHg 69%
02:00 +16°C° 0 mm 1 m/S 752 mmHg 69%
03:00 +15°C° 0 mm 1 m/S 752 mmHg 70%
04:00 +15°C° 0 mm 1 m/S 752 mmHg 70%
05:00 +18°C° 0 mm 1 m/S 752 mmHg 65%
06:00 +19°C° 0 mm 2 m/S 752 mmHg 61%
07:00 +21°C° 0 mm 2 m/S 752 mmHg 56%
08:00 +24°C° 0 mm 3 m/S 752 mmHg 53%
09:00 +26°C° 0 mm 4 m/S 752 mmHg 50%
10:00 +28°C° 0 mm 5 m/S 751 mmHg 46%
11:00 +29°C° 0 mm 6 m/S 751 mmHg 44%
12:00 +32°C° 0 mm 6 m/S 751 mmHg 42%
13:00 +33°C° 0 mm 7 m/S 750 mmHg 41%
14:00 +32°C° 0 mm 6 m/S 750 mmHg 44%
15:00 +30°C° 0 mm 5 m/S 750 mmHg 47%
16:00 +29°C° 0 mm 4 m/S 750 mmHg 50%
17:00 +29°C° 0 mm 5 m/S 749 mmHg 51%
18:00 +29°C° 0 mm 5 m/S 749 mmHg 52%
19:00 +29°C° 0 mm 5 m/S 749 mmHg 53%
20:00 +27°C° 0.5 mm 4 m/S 749 mmHg 64%
21:00 +24°C° 0.5 mm 3 m/S 749 mmHg 75%
22:00 +21°C° 0.5 mm 3 m/S 750 mmHg 86%
23:00 +20°C° 0 mm 3 m/S 750 mmHg 88%
Mehr zeigen

Wir brauchen deine Erlaubnis

Meteoprog und unser Service Anbieter werden persönliche Daten aufbewahren, so wie Cookies, Geräte Bezeichnung oder ähnliche Technologien von deinem Gerät und Prozess, so wie Persönliche Daten Inhalte und Werbungen, genauso wie social Media und den Verkehr zu analysieren.

  • Aufbewahrung und/oder Zugang zu deiner Geräte Informationen.

    Cookies, Geräte Bezeichnung oder andere Informationen, können aufbewahrt oder Zugang zu deinem Gerät erhalten, für den Grund, der oben angegeben wird.

  • Personalisierte Werbung und Inhalte, Messungen, Einblick in das Publikum und Produkt Entwicklung.

    Werbungen und Inhalte können personalisiert werden, basierend auf ein Profil. Mehr Daten können besser personalisierte Werbungen und Inhalte hinzufügen. Werbung und Inhalte können gezeigt und gemessen werden. Einblicke über das Publikum, welche die Werbung gesehen haben und den Inhalt, können abgeleitet werden. So wie Daten können genutzt werden, um es zu verbessern oder die Benutzer Erfahrung zu verbessern das System und die Software.

Wenn du “Ich stimme zu” klickst, erlaubst du uns, die Cookies zu benutzen die Geräte Bezeichnung, den Web oder ähnliche Technologien zu benutzen. Deine Settings, können in deinem Gerät bei deinem Browser geändert werden.

Für den bestimmten Zweck, berechtigten Interessen beruhen darauf, mehr als auf den Inhalt. Du kannst mehr darüber in unseren Privaten und Cookie Politik lesen.